Location: Agendoh
(31.0664°N, 8.9343°W)
Time: 07:53:05
(UTC+00:00)

Cosmos 1812 - Pass Details

Date: 06 December 2021
Orbit: 513 x 519 km, 82.5° (Epoch: 24 January)

Event Time Altitude Azimuth Distance (km) Brightness Sun altitude
Exits shadow 05:53:11 37° 326° (NNW) 815 3.3 -18.3°
Maximum altitude 05:54:26 58° 266° (W) 606 2.7 -18.0°
Drops below altitude 10° 05:58:10 10° 187° (S) 1,734 5.5 -17.2°
Sets 06:00:18 0° 183° (S) 2,615 6.5 -16.8°
